YMA7002 YSTW-YMML

Flight info

Callsign YMA7002
Flight time N/A
Altitude 20000
Route TW DCT PKS DCT ORINO DCT ARBEY
Aircraft DH8D/M-SDE2E3FGRY/H

Departure

Time 2026-05-07 21:11
Airport Tamworth Airport (YSTW)

Arrival

Time N/A
Airport Melbourne Airport (YMML)
Time Latitude Longitude Altitude Speed Heading
2026-05-07 20:59 -31.08437 150.84944 1326 ft 0 kts 274°
2026-05-07 21:07 -31.08437 150.84943 1322 ft 0 kts 274°
2026-05-07 21:07 -31.08433 150.84938 1321 ft 1 kts 336°
2026-05-07 21:07 -31.08415 150.84950 1321 ft 3 kts 67°
2026-05-07 21:08 -31.08417 150.84975 1321 ft 2 kts 109°
2026-05-07 21:08 -31.08421 150.84987 1322 ft 0 kts 117°
2026-05-07 21:08 -31.08433 150.85007 1323 ft 7 kts 129°
2026-05-07 21:08 -31.08473 150.85057 1324 ft 7 kts 134°
2026-05-07 21:09 -31.08506 150.85106 1325 ft 8 kts 103°
2026-05-07 21:09 -31.08510 150.85172 1325 ft 8 kts 111°
2026-05-07 21:09 -31.08523 150.85237 1324 ft 8 kts 80°
2026-05-07 21:09 -31.08493 150.85301 1322 ft 9 kts 49°
2026-05-07 21:10 -31.08447 150.85352 1319 ft 7 kts 22°
2026-05-07 21:10 -31.08419 150.85341 1318 ft 0 kts 316°
2026-05-07 21:10 -31.08387 150.85303 1318 ft 30 kts 315°
2026-05-07 21:11 -31.07995 150.84822 1298 ft 126 kts 310°
2026-05-07 21:11 -31.07311 150.83962 1650 ft 151 kts 313°
2026-05-07 21:11 -31.06774 150.83203 2348 ft 151 kts 310°
2026-05-07 21:12 -31.06361 150.82657 2792 ft 157 kts 314°
2026-05-07 21:12 -31.05590 150.81665 3348 ft 174 kts 300°
2026-05-07 21:12 -31.05375 150.80272 3855 ft 186 kts 261°
2026-05-07 21:12 -31.05930 150.78889 4396 ft 196 kts 234°
2026-05-07 21:13 -31.06892 150.77713 4937 ft 208 kts 225°
2026-05-07 21:13 -31.07976 150.76532 5472 ft 219 kts 224°
2026-05-07 21:13 -31.09132 150.75349 5994 ft 229 kts 224°
2026-05-07 21:13 -31.10362 150.74112 6579 ft 235 kts 223°
2026-05-07 21:14 -31.11587 150.72896 7368 ft 232 kts 223°
2026-05-07 21:14 -31.12793 150.71663 8133 ft 230 kts 223°
2026-05-07 21:14 -31.13960 150.70430 8864 ft 229 kts 223°
2026-05-07 21:14 -31.15106 150.69176 9581 ft 228 kts 223°
2026-05-07 21:15 -31.16247 150.67891 10235 ft 229 kts 223°
2026-05-07 21:15 -31.17403 150.66580 10840 ft 232 kts 223°
2026-05-07 21:15 -31.18549 150.65280 11428 ft 234 kts 223°
2026-05-07 21:15 -31.19722 150.63951 12015 ft 236 kts 223°
2026-05-07 21:16 -31.20900 150.62617 12635 ft 237 kts 223°
2026-05-07 21:16 -31.22084 150.61296 13269 ft 237 kts 223°
2026-05-07 21:16 -31.23274 150.59990 13881 ft 237 kts 223°
2026-05-07 21:16 -31.24474 150.58694 14487 ft 238 kts 223°
2026-05-07 21:17 -31.25709 150.57384 15096 ft 239 kts 223°
2026-05-07 21:17 -31.26942 150.56090 15672 ft 241 kts 223°
2026-05-07 21:17 -31.28199 150.54784 16244 ft 243 kts 223°
2026-05-07 21:17 -31.29471 150.53477 16810 ft 245 kts 223°
2026-05-07 21:18 -31.30740 150.52187 17328 ft 247 kts 223°
2026-05-07 21:18 -31.32043 150.50874 17834 ft 249 kts 223°
2026-05-07 21:18 -31.33368 150.49553 18328 ft 250 kts 223°
2026-05-07 21:18 -31.34687 150.48248 18796 ft 252 kts 223°
2026-05-07 21:19 -31.36047 150.46922 19247 ft 254 kts 223°
2026-05-07 21:19 -31.37365 150.45552 19692 ft 253 kts 228°
2026-05-07 21:19 -31.38629 150.44084 19991 ft 261 kts 226°
2026-05-07 21:19 -31.40031 150.42664 20094 ft 276 kts 224°
2026-05-07 21:20 -31.41539 150.41173 20110 ft 288 kts 224°
2026-05-07 21:20 -31.43082 150.39650 20114 ft 297 kts 224°
2026-05-07 21:20 -31.44695 150.38062 20112 ft 305 kts 224°
2026-05-07 21:20 -31.46337 150.36444 20106 ft 311 kts 224°
2026-05-07 21:21 -31.47984 150.34821 20081 ft 314 kts 224°
2026-05-07 21:21 -31.49675 150.33151 20069 ft 317 kts 224°
2026-05-07 21:21 -31.51356 150.31494 20066 ft 318 kts 224°
2026-05-07 21:21 -31.53034 150.29840 20066 ft 319 kts 224°
2026-05-07 21:22 -31.54736 150.28160 20068 ft 320 kts 224°
2026-05-07 21:22 -31.56439 150.26480 20068 ft 320 kts 224°
2026-05-07 21:22 -31.58153 150.24786 20070 ft 321 kts 224°
2026-05-07 21:22 -31.59866 150.23093 20069 ft 321 kts 224°
2026-05-07 21:23 -31.61560 150.21417 20069 ft 321 kts 224°
2026-05-07 21:23 -31.63270 150.19727 20068 ft 321 kts 224°
2026-05-07 21:23 -31.64965 150.18048 20066 ft 321 kts 224°
2026-05-07 21:23 -31.66668 150.16360 20064 ft 321 kts 224°
2026-05-07 21:24 -31.68397 150.14647 20061 ft 321 kts 224°
2026-05-07 21:24 -31.70099 150.12959 20058 ft 321 kts 224°
2026-05-07 21:24 -31.71809 150.11264 20055 ft 321 kts 224°
2026-05-07 21:24 -31.73511 150.09575 20050 ft 321 kts 224°
2026-05-07 21:25 -31.75216 150.07883 20036 ft 323 kts 224°
2026-05-07 21:25 -31.76931 150.06177 20035 ft 324 kts 224°
2026-05-07 21:25 -31.78634 150.04483 20035 ft 325 kts 224°
2026-05-07 21:25 -31.80374 150.02751 20039 ft 325 kts 224°
2026-05-07 21:26 -31.82100 150.01031 20054 ft 325 kts 224°
2026-05-07 21:26 -31.83819 149.99322 20060 ft 323 kts 224°
2026-05-07 21:26 -31.85525 149.97624 20062 ft 322 kts 224°
2026-05-07 21:26 -31.87228 149.95927 20062 ft 320 kts 224°
2026-05-07 21:27 -31.88926 149.94237 20070 ft 320 kts 224°
2026-05-07 21:27 -31.90629 149.92537 20071 ft 320 kts 224°
2026-05-07 21:27 -31.92317 149.90854 20071 ft 319 kts 224°
2026-05-07 21:27 -31.94010 149.89163 20070 ft 319 kts 224°
2026-05-07 21:28 -31.95715 149.87459 20059 ft 319 kts 224°
2026-05-07 21:28 -31.97393 149.85782 20057 ft 319 kts 224°
2026-05-07 21:28 -31.99095 149.84079 20058 ft 319 kts 224°
2026-05-07 21:28 -32.00776 149.82397 20058 ft 319 kts 224°
2026-05-07 21:29 -32.02475 149.80696 20057 ft 319 kts 224°
2026-05-07 21:29 -32.04167 149.79002 20054 ft 319 kts 224°
2026-05-07 21:29 -32.05847 149.77319 20050 ft 319 kts 224°
2026-05-07 21:29 -32.07534 149.75627 20046 ft 319 kts 224°
2026-05-07 21:30 -32.09225 149.73932 20044 ft 318 kts 224°
2026-05-07 21:30 -32.10915 149.72237 20045 ft 318 kts 224°
2026-05-07 21:30 -32.12592 149.70550 20044 ft 319 kts 224°
2026-05-07 21:30 -32.14267 149.68869 20043 ft 319 kts 224°
2026-05-07 21:31 -32.15948 149.67178 20043 ft 318 kts 224°
2026-05-07 21:31 -32.17641 149.65477 20044 ft 318 kts 224°
2026-05-07 21:31 -32.19336 149.63771 20043 ft 318 kts 224°
2026-05-07 21:31 -32.21004 149.62093 20043 ft 318 kts 224°
2026-05-07 21:32 -32.22698 149.60384 20043 ft 318 kts 224°
2026-05-07 21:32 -32.24383 149.58688 20043 ft 318 kts 224°
2026-05-07 21:32 -32.26067 149.56990 20043 ft 318 kts 224°
2026-05-07 21:32 -32.27750 149.55293 20044 ft 318 kts 224°
2026-05-07 21:33 -32.29424 149.53603 20044 ft 318 kts 224°
2026-05-07 21:33 -32.31105 149.51904 20043 ft 318 kts 224°
2026-05-07 21:33 -32.32797 149.50195 20042 ft 318 kts 224°
2026-05-07 21:33 -32.34463 149.48514 20042 ft 318 kts 224°
2026-05-07 21:34 -32.36154 149.46805 20042 ft 318 kts 224°
2026-05-07 21:34 -32.37832 149.45108 20042 ft 317 kts 224°
2026-05-07 21:34 -32.39492 149.43427 20043 ft 317 kts 224°
2026-05-07 21:34 -32.41182 149.41713 20044 ft 317 kts 224°
2026-05-07 21:35 -32.42841 149.40031 20045 ft 317 kts 224°
2026-05-07 21:35 -32.44535 149.38315 20045 ft 316 kts 224°
2026-05-07 21:35 -32.46193 149.36633 20046 ft 316 kts 224°
2026-05-07 21:35 -32.47852 149.34950 20047 ft 315 kts 224°
2026-05-07 21:36 -32.49529 149.33247 20047 ft 316 kts 224°
2026-05-07 21:36 -32.51187 149.31561 20048 ft 316 kts 224°
2026-05-07 21:36 -32.52861 149.29862 20049 ft 316 kts 224°
2026-05-07 21:36 -32.54512 149.28183 20050 ft 316 kts 224°
2026-05-07 21:37 -32.56192 149.26472 20050 ft 316 kts 224°
2026-05-07 21:37 -32.57845 149.24791 20051 ft 315 kts 224°
2026-05-07 21:37 -32.59515 149.23090 20052 ft 315 kts 224°
2026-05-07 21:37 -32.61187 149.21385 20053 ft 315 kts 224°
2026-05-07 21:38 -32.62841 149.19699 20053 ft 315 kts 224°
2026-05-07 21:38 -32.64497 149.18010 20054 ft 315 kts 224°
2026-05-07 21:38 -32.66161 149.16313 20055 ft 315 kts 224°
2026-05-07 21:38 -32.67816 149.14624 20055 ft 315 kts 224°
2026-05-07 21:39 -32.69466 149.12939 20056 ft 314 kts 224°
2026-05-07 21:39 -32.71138 149.11227 20059 ft 314 kts 224°
2026-05-07 21:39 -32.72793 149.09535 20060 ft 314 kts 224°
2026-05-07 21:39 -32.74428 149.07863 20062 ft 314 kts 224°
2026-05-07 21:40 -32.76083 149.06168 20064 ft 314 kts 224°
2026-05-07 21:40 -32.77749 149.04462 20064 ft 313 kts 224°
2026-05-07 21:40 -32.79380 149.02789 20064 ft 313 kts 224°
2026-05-07 21:40 -32.81047 149.01080 20064 ft 313 kts 224°
2026-05-07 21:41 -32.82695 148.99393 20063 ft 313 kts 224°
2026-05-07 21:41 -32.84335 148.97710 20062 ft 313 kts 224°
2026-05-07 21:41 -32.85967 148.96033 20061 ft 313 kts 224°
2026-05-07 21:41 -32.87626 148.94327 20060 ft 313 kts 224°
2026-05-07 21:42 -32.89259 148.92650 20060 ft 312 kts 224°
2026-05-07 21:42 -32.90916 148.90947 20058 ft 312 kts 223°
2026-05-07 21:42 -32.92552 148.89262 20058 ft 312 kts 224°
2026-05-07 21:42 -32.94178 148.87543 20056 ft 311 kts 224°
2026-05-07 21:43 -32.95784 148.85828 20055 ft 311 kts 224°
2026-05-07 21:43 -32.97420 148.84160 20053 ft 311 kts 223°
2026-05-07 21:43 -32.99063 148.82487 20052 ft 311 kts 223°
2026-05-07 21:43 -33.00710 148.80808 20052 ft 310 kts 223°
2026-05-07 21:44 -33.02338 148.79141 20053 ft 310 kts 223°
2026-05-07 21:44 -33.03964 148.77472 20053 ft 310 kts 223°
2026-05-07 21:44 -33.05610 148.75778 20053 ft 310 kts 223°
2026-05-07 21:44 -33.07222 148.74118 20054 ft 310 kts 223°
2026-05-07 21:45 -33.08872 148.72415 20055 ft 310 kts 223°
2026-05-07 21:45 -33.10477 148.70756 20058 ft 310 kts 223°
2026-05-07 21:45 -33.12120 148.69058 20057 ft 310 kts 223°
2026-05-07 21:45 -33.13731 148.67390 20058 ft 311 kts 223°
2026-05-07 21:46 -33.15379 148.65683 20059 ft 310 kts 223°
2026-05-07 21:46 -33.17012 148.63992 20061 ft 310 kts 223°
2026-05-07 21:46 -33.18624 148.62321 20062 ft 311 kts 223°
2026-05-07 21:46 -33.20261 148.60622 20064 ft 311 kts 223°
2026-05-07 21:47 -33.21893 148.58928 20067 ft 310 kts 223°
2026-05-07 21:47 -33.23511 148.57250 20070 ft 310 kts 223°
2026-05-07 21:47 -33.25149 148.55548 20074 ft 310 kts 223°
2026-05-07 21:47 -33.26763 148.53871 20076 ft 310 kts 223°
2026-05-07 21:48 -33.28398 148.52170 20078 ft 310 kts 223°
2026-05-07 21:48 -33.30029 148.50472 20078 ft 310 kts 223°
2026-05-07 21:48 -33.31634 148.48799 20076 ft 310 kts 223°
2026-05-07 21:48 -33.33259 148.47104 20074 ft 309 kts 223°
2026-05-07 21:49 -33.34875 148.45419 20073 ft 309 kts 223°
2026-05-07 21:49 -33.36512 148.43710 20071 ft 309 kts 223°
2026-05-07 21:49 -33.38130 148.42023 20068 ft 309 kts 223°
2026-05-07 21:49 -33.39740 148.40341 20067 ft 309 kts 223°
2026-05-07 21:50 -33.41360 148.38649 20065 ft 309 kts 223°
2026-05-07 21:50 -33.42961 148.36975 20064 ft 309 kts 223°
2026-05-07 21:50 -33.44595 148.35268 20062 ft 309 kts 223°
2026-05-07 21:50 -33.46206 148.33580 20061 ft 309 kts 223°
2026-05-07 21:51 -33.47826 148.31885 20060 ft 309 kts 223°
2026-05-07 21:51 -33.49420 148.30215 20059 ft 309 kts 223°
2026-05-07 21:51 -33.51050 148.28508 20057 ft 309 kts 223°
2026-05-07 21:51 -33.52661 148.26819 20056 ft 308 kts 223°
2026-05-07 21:52 -33.54267 148.25134 20055 ft 308 kts 223°
2026-05-07 21:52 -33.55890 148.23431 20053 ft 308 kts 223°
2026-05-07 21:52 -33.57489 148.21750 20052 ft 308 kts 223°
2026-05-07 21:52 -33.59114 148.20042 20051 ft 308 kts 223°
2026-05-07 21:53 -33.60719 148.18356 20050 ft 308 kts 223°
2026-05-07 21:53 -33.62319 148.16673 20049 ft 307 kts 223°
2026-05-07 21:53 -33.63918 148.14990 20048 ft 307 kts 223°
2026-05-07 21:53 -33.65528 148.13295 20046 ft 307 kts 223°
2026-05-07 21:54 -33.67133 148.11606 20045 ft 307 kts 223°
2026-05-07 21:54 -33.68743 148.09909 20043 ft 307 kts 223°
2026-05-07 21:54 -33.70356 148.08208 20042 ft 307 kts 223°
2026-05-07 21:54 -33.71946 148.06529 20040 ft 306 kts 223°
2026-05-07 21:55 -33.73549 148.04837 20039 ft 306 kts 223°
2026-05-07 21:55 -33.75142 148.03155 20038 ft 306 kts 223°
2026-05-07 21:55 -33.76753 148.01453 20035 ft 306 kts 223°
2026-05-07 21:55 -33.78348 147.99767 20032 ft 305 kts 223°
2026-05-07 21:56 -33.79939 147.98085 20029 ft 305 kts 223°
2026-05-07 21:56 -33.81525 147.96405 20027 ft 305 kts 223°
2026-05-07 21:56 -33.83110 147.94727 20026 ft 305 kts 223°
2026-05-07 21:56 -33.84705 147.93037 20025 ft 305 kts 223°
2026-05-07 21:57 -33.86288 147.91359 20022 ft 305 kts 223°
2026-05-07 21:57 -33.87884 147.89667 20020 ft 305 kts 223°
2026-05-07 21:57 -33.89479 147.87975 20020 ft 305 kts 223°
2026-05-07 21:57 -33.91060 147.86296 20019 ft 304 kts 223°
2026-05-07 21:58 -33.92638 147.84619 20020 ft 304 kts 223°
2026-05-07 21:58 -33.94224 147.82935 20019 ft 304 kts 223°
2026-05-07 21:58 -33.95820 147.81238 20019 ft 304 kts 223°
2026-05-07 21:58 -33.97401 147.79555 20018 ft 304 kts 223°
2026-05-07 21:59 -33.98982 147.77875 20017 ft 304 kts 223°
2026-05-07 21:59 -34.00561 147.76192 20017 ft 304 kts 223°
2026-05-07 21:59 -34.02147 147.74501 20016 ft 304 kts 223°
2026-05-07 21:59 -34.03727 147.72818 20015 ft 304 kts 223°
2026-05-07 22:00 -34.05323 147.71115 20014 ft 304 kts 223°
2026-05-07 22:00 -34.06908 147.69423 20013 ft 304 kts 223°
2026-05-07 22:00 -34.08482 147.67743 20012 ft 304 kts 223°
2026-05-07 22:00 -34.10070 147.66046 20012 ft 304 kts 223°
2026-05-07 22:01 -34.11640 147.64368 20010 ft 304 kts 223°
2026-05-07 22:01 -34.13229 147.62668 20010 ft 304 kts 223°
2026-05-07 22:01 -34.14800 147.60988 20010 ft 305 kts 223°
2026-05-07 22:01 -34.16394 147.59280 20009 ft 305 kts 223°
2026-05-07 22:02 -34.17981 147.57582 20008 ft 306 kts 223°
2026-05-07 22:02 -34.19574 147.55875 20007 ft 306 kts 223°
2026-05-07 22:02 -34.21164 147.54170 20006 ft 306 kts 223°
2026-05-07 22:02 -34.22761 147.52457 20006 ft 306 kts 223°
2026-05-07 22:03 -34.24341 147.50761 20005 ft 306 kts 223°
2026-05-07 22:03 -34.25940 147.49043 20005 ft 306 kts 223°
2026-05-07 22:03 -34.27529 147.47336 20004 ft 306 kts 223°
2026-05-07 22:03 -34.29134 147.45612 20004 ft 307 kts 223°
2026-05-07 22:04 -34.30728 147.43896 20003 ft 307 kts 223°
2026-05-07 22:04 -34.32319 147.42184 20003 ft 307 kts 223°
2026-05-07 22:04 -34.33903 147.40480 20002 ft 307 kts 222°
2026-05-07 22:04 -34.35504 147.38754 20002 ft 307 kts 222°
2026-05-07 22:05 -34.37105 147.37028 20002 ft 307 kts 222°
2026-05-07 22:05 -34.38681 147.35330 20001 ft 307 kts 222°
2026-05-07 22:05 -34.40283 147.33601 20002 ft 307 kts 223°
2026-05-07 22:05 -34.41877 147.31882 20001 ft 307 kts 223°
2026-05-07 22:06 -34.43460 147.30173 20001 ft 307 kts 223°
2026-05-07 22:06 -34.45065 147.28439 20000 ft 307 kts 223°
2026-05-07 22:06 -34.46666 147.26708 20000 ft 308 kts 223°
2026-05-07 22:06 -34.48261 147.24982 19999 ft 308 kts 223°
2026-05-07 22:07 -34.49841 147.23270 19999 ft 308 kts 223°
2026-05-07 22:07 -34.51444 147.21533 19999 ft 308 kts 223°
2026-05-07 22:07 -34.53037 147.19806 19999 ft 308 kts 223°
2026-05-07 22:07 -34.54637 147.18074 19999 ft 308 kts 223°
2026-05-07 22:08 -34.56238 147.16336 19999 ft 308 kts 223°